Marietta, GA

9:50 AM EDT on September 28, 2016 (GMT -0400)
Dobbins Air Force Base

Weather History for KMGE - February, 2014

Change the Weather History Date:

Friday, February 7, 2014

  Actual Average Record
Temperature  
Mean Temperature 36 °F -  
Max Temperature 48 °F 52 °F 69 °F (1999)
Min Temperature 25 °F 34 °F 25 °F (2014)
Degree Days  
Heating Degree Days 28    
Moisture  
Dew Point 24 °F    
Average Humidity 64    
Maximum Humidity 91    
Minimum Humidity 37    
Precipitation  
Precipitation 0.00 in - - ()
Sea Level Pressure  
Sea Level Pressure 30.30 in    
Wind  
Wind Speed 5 mph (NW)    
Max Wind Speed 8 mph    
Max Gust Speed -    
Visibility 10 miles    
Events      
Averages and records for this station are not official NWS values.
T = Trace of Precipitation, MM = Missing Value Source: NWS Daily Summary

Daily Weather History Graph

Daily Weather History Graph

Search for Another Location

Airport or City:

Trip Planner

Search our weather history database for the weather conditions in past years. The results will help you decide how hot, cold, wet, or windy it might be!

Date:

Astronomy

Feb. 07, 2014 Rise Set
Actual Time 7:30 AM EST 6:14 PM EST
Civil Twilight 7:04 AM EST 6:40 PM EST
Nautical Twilight 6:34 AM EST 7:10 PM EST
Astronomical Twilight 6:05 AM EST 7:39 PM EST
Moon 12:28 PM EST (2/7) 1:43 AM EST (2/7)
Length of Visible Light 11h 36m
Length of Day
10h 44m
First Quarter, 59% of the Moon is Illuminated
Feb 7
First Quarter
Feb 14
Full
Feb 22
Last Quarter
Mar 1
New
Mar 8
First Quarter

Hourly Weather History & Observations

Time (EST) Temp. Windchill Dew Point Humidity Pressure Visibility Wind Dir Wind Speed Gust Speed Precip Events Conditions
12:58 AM 30.0 °F 25.2 °F 26.1 °F 85% 30.29 in 10.0 mi NW 4.6 mph - N/A   Clear
1:58 AM 28.9 °F 25.2 °F 25.2 °F 86% 30.28 in 10.0 mi WNW 3.5 mph - N/A   Clear
2:58 AM 28.0 °F 22.8 °F 24.8 °F 88% 30.30 in 10.0 mi WNW 4.6 mph - N/A   Clear
3:58 AM 28.2 °F 22.0 °F 25.3 °F 89% 30.30 in 10.0 mi NW 5.8 mph - N/A   Clear
4:58 AM 27.7 °F 22.4 °F 24.6 °F 88% 30.31 in 10.0 mi NW 4.6 mph - N/A   Scattered Clouds
5:58 AM 27.1 °F 21.8 °F 24.3 °F 89% 30.30 in 10.0 mi NW 4.6 mph - N/A   Clear
6:58 AM 25.2 °F 17.3 °F 23.0 °F 91% 30.33 in 10.0 mi West 6.9 mph - N/A   Partly Cloudy
7:58 AM 25.0 °F 18.1 °F 22.6 °F 91% 30.34 in 10.0 mi WNW 5.8 mph - N/A   Scattered Clouds
8:58 AM 29.7 °F 23.7 °F 25.5 °F 85% 30.36 in 10.0 mi WNW 5.8 mph - N/A   Scattered Clouds
9:58 AM 34.0 °F 28.8 °F 25.2 °F 70% 30.35 in 10.0 mi NW 5.8 mph - N/A   Mostly Cloudy
10:58 AM 37.9 °F 32.7 °F 25.2 °F 60% 30.36 in 10.0 mi North 6.9 mph - N/A   Mostly Cloudy
11:58 AM 41.2 °F 36.6 °F 24.3 °F 51% 30.35 in 10.0 mi WNW 6.9 mph - N/A   Mostly Cloudy
12:58 PM 45.1 °F 41.4 °F 21.0 °F 38% 30.32 in 10.0 mi NNW 6.9 mph - N/A   Mostly Cloudy
1:58 PM 47.1 °F - 22.1 °F 37% 30.29 in 10.0 mi Variable 3.5 mph - N/A   Mostly Cloudy
2:58 PM 48.0 °F - 23.0 °F 37% 30.27 in 10.0 mi WNW 8.1 mph - N/A   Mostly Cloudy
3:58 PM 48.0 °F - 23.7 °F 39% 30.27 in 10.0 mi WNW 6.9 mph - N/A   Mostly Cloudy
4:58 PM 46.9 °F - 24.4 °F 41% 30.27 in 10.0 mi West 6.9 mph - N/A   Overcast
5:58 PM 44.4 °F 42.0 °F 24.3 °F 45% 30.27 in 10.0 mi NW 4.6 mph - N/A   Overcast
6:58 PM 43.5 °F 40.9 °F 24.4 °F 47% 30.28 in 10.0 mi NW 4.6 mph - N/A   Overcast
7:58 PM 42.4 °F 40.7 °F 24.4 °F 49% 30.28 in 10.0 mi North 3.5 mph - N/A   Overcast
8:58 PM 41.0 °F 35.8 °F 24.1 °F 51% 30.27 in 10.0 mi NNW 8.1 mph - N/A   Overcast
9:58 PM 39.7 °F 36.5 °F 23.7 °F 53% 30.26 in 10.0 mi North 4.6 mph - N/A   Overcast
10:58 PM 38.7 °F - 25.0 °F 58% 30.26 in 10.0 mi SW 1.2 mph - N/A   Overcast
11:58 PM 37.4 °F 33.8 °F 27.5 °F 67% 30.27 in 10.0 mi West 4.6 mph - N/A   Overcast